Location: Lewisville
(33.0462°N, 96.9942°W)
Time: 15:28:14
(UTC-06:00)

LightSail 2 - Pass Details

Date: 30 November 2019
Orbit: 704 x 720 km, 24.0° (Epoch: 22 January)

Event Time Altitude Azimuth Distance (km) Brightness Sun altitude
Rises 19:14:49 0° 237° (WSW) 3,078 9.6 -23.4°
Reaches altitude 10° 19:17:37 10° 224° (SW) 2,159 8.4 -24.0°
Maximum altitude 19:21:43 25° 170° (S) 1,407 6.6 -24.8°
Enters shadow 19:22:09 24° 162° (SSE) 1,417 6.6 -24.9°
